Dewpoint
2 -1 -6 -10 -14 -13 -12 -12 -11 -10 -9 -12 -15 -16 -18 -20 -20 -23 -17 -19 -7 -18 -15 -16 -12 -8 -9 -7 -5 -9 -7 -5 -8 -8 -10 -6 -6 -3 -2 -3 -3 -3 -4 -7 -7
4 5 4 0 -6 -11 -10 -9 -9 -8 -9 -12 -14 -15 -17 -19 -20 -17 -22 -24 -21 -18 -14 -17 -11 -8 -8 -7 -6 -7 -9 -11 -10 -10 -9 -6 -6 -4 -3 -3 -3 -5 -7 -8 -8
5 5 5 5 -0 -6 -6 -5 -5 -6 -7 -10 -10 -11 -15 -18 -16 -18 -21 -23 -21 -16 -15 -15 -12 -7 -8 -7 -6 -7 -11 -10 -10 -9 -7 -6 -5 -3 -4 -3 -4 -7 -8 -9 -9
7 7 6 6 4 0 -1 1 2 1 -0 -2 -5 -9 -13 -17 -9 -19 -22 -22 -17 -15 -13 -11 -8 -8 -9 -10 -8 -8 -8 -8 -7 -7 -5 -4 -3 -3 -3 -4 -7 -7 -8 -9 -9
8 8 7 6 6 5 5 4 5 5 4 1 -3 -7 -12 -12 -16 -19 -21 -20 -16 -13 -12 -11 -10 -10 -10 -10 -8 -7 -7 -6 -6 -6 -6 -3 -4 -4 -3 -5 -6 -8 -11 -11 -10
8 7 8 7 7 5 5 5 5 5 6 3 0 -6 -14 -8 -15 -19 -20 -19 -15 -11 -10 -9 -9 -9 -10 -9 -8 -7 -6 -7 -7 -7 -6 -4 -2 -1 -2 -4 -7 -11 -12 -12 -10
8 8 8 8 7 6 5 6 6 5 5 5 -0 -8 -10 -10 -16 -17 -19 -19 -15 -13 -9 -9 -9 -9 -9 -9 -8 -8 -8 -8 -8 -5 -3 -1 -0 -1 -3 -5 -10 -11 -12 -12 -11
9 8 8 8 8 7 6 6 6 5 5 2 -3 -9 -10 -13 -15 -17 -14 -10 -10 -13 -10 -8 -7 -9 -9 -8 -9 -8 -8 -7 -8 -4 -2 -3 -7 -3 -3 -9 -9 -10 -11 -12 -12
8 8 9 8 7 8 8 7 5 6 3 -1 -5 -12 -11 -14 -16 -16 -9 -5 -1 -3 -3 -3 -4 -7 -9 -10 -11 -9 -11 -13 -12 -5 -2 -3 -4 -3 -4 -9 -8 -8 -10 -11 -11
10 9 9 9 8 7 8 7 6 4 -1 0 -4 -5 -9 -14 -13 -11 -10 -6 0 -1 -3 -8 -9 -8 -9 -11 -7 -17 -15 -11 -11 -9 -5 -4 -3 -5 -4 -7 -6 -9 -10 -10 -11
8 8 8 8 9 9 8 7 4 2 4 2 -1 -5 -11 -13 -10 -11 -10 -1 -8 -6 -3 -8 -8 -6 -13 -11 -10 -10 -10 -10 -12 -10 -7 -7 -6 -6 -5 -5 -6 -9 -9 -9 -10
4 4 5 7 9 9 8 8 6 4 4 3 2 -1 -6 -10 -12 -9 -14 -9 -12 -11 -7 -8 -6 -13 -11 -9 -10 -11 -11 -12 -11 -9 -9 -9 -6 -1 -4 -4 -6 -9 -10 -9 -9
3 4 6 9 9 8 7 8 6 5 5 4 -6 -12 -14 -15 -11 -10 -13 -10 -12 -10 -10 -9 -12 -11 -11 -9 -10 -12 -11 -10 -10 -10 -8 -3 0 -1 -5 -8 -9 -13 -13 -10 -8
-2 1 5 7 7 8 7 7 6 5 8 3 -10 -14 -16 -15 -12 -12 -13 -10 -10 -12 -13 -13 -11 -11 -12 -14 -11 -11 -9 -9 -8 -5 1 -4 2 -1 -5 -4 -15 -14 -13 -9 -8
-9 7 8 7 8 7 7 6 6 6 10 -5 -12 -14 -14 -13 -12 -8 -11 -9 -10 -11 -10 -11 -13 -12 -14 -13 -11 -10 -9 -5 -4 -2 -2 -1 1 -3 -7 -9 -12 -12 -11 -10 -8
3 7 8 8 7 5 5 4 6 7 9 -6 -14 -15 -14 -8 -9 -8 -9 -10 -8 -9 -12 -11 -9 -11 -10 -10 -10 -9 -6 -6 -6 -1 3 -2 -1 -4 -5 -5 -9 -10 -11 -10 -7
1 5 7 7 7 5 4 5 7 8 1 -1 -8 -11 -9 -2 -7 -4 2 1 -5 -2 -2 -10 -12 -11 -10 -12 -10 -10 -6 1 2 2 2 -5 -5 -1 -5 -7 -7 -7 -10 -9 -7
4 5 5 6 6 6 5 5 8 6 5 -4 -8 -4 -1 -11 -11 -11 -7 -3 -6 -3 -4 -7 -3 -10 -10 -11 -10 -8 -8 -3 -5 -3 -8 -8 -2 -4 -8 -9 -8 -10 -9 -9 -7
3 4 4 5 5 5 4 5 6 6 1 -0 1 5 4 -6 -8 -0 -7 -7 -7 -1 -2 -3 -11 -9 -10 -11 -11 -9 -5 -7 -4 -6 -9 -13 -13 -12 -11 -15 -12 -11 -10 -9 -7
2 2 2 4 4 4 4 5 3 1 -3 -1 6 6 7 -3 -3 1 1 -7 -5 -7 -6 -2 -4 -10 -9 -11 -10 -9 -9 -5 -4 -4 -6 -16 -14 -14 -11 -9 -10 -9 -9 -10 -7
2 2 1 2 3 3 5 3 3 -1 1 2 5 6 5 -1 -5 2 3 -4 -7 -6 -7 -5 -3 -3 -8 -9 -10 -9 -6 -7 -7 -6 -5 -12 -12 -7 -7 -6 -7 -9 -9 -10 -8
2 3 1 2 3 2 4 2 1 1 0 2 2 3 4 2 2 -1 -2 -3 -7 -8 -6 -7 -3 -5 -6 -8 -8 -9 -10 -10 -9 -5 -7 -7 -12 -5 -6 -7 -9 -9 -10 -10 -7
2 2 1 2 4 3 1 1 1 1 1 1 2 2 2 2 4 -1 -7 -5 -6 -8 -5 -5 -4 -3 -2 -4 -8 -7 -8 -11 -10 -8 -6 -8 -14 -10 -11 -9 -9 -9 -11 -11 -8
1 2 1 1 1 2 3 3 3 0 1 1 1 -1 -0 1 -1 2 -5 -6 -6 -3 -5 -7 -5 -5 -8 -4 -5 -4 -5 -10 -9 -10 -7 -9 -11 -14 -15 -8 -9 -9 -12 -10 -8
1 2 2 2 1 1 1 2 3 3 -0 -0 1 1 1 2 -1 -0 -2 -4 -6 -3 -2 -6 -7 -7 -12 -13 -9 -8 -5 -6 -7 -12 -11 -10 -10 -12 -10 -8 -9 -10 -11 -10 -9
1 1 1 1 1 1 1 2 2 3 1 1 1 1 1 2 1 1 -1 -2 -5 -5 -4 -5 -5 -9 -8 -10 -10 -9 -10 -8 -7 -9 -13 -12 -10 -12 -10 -10 -9 -8 -11 -10 -9
1 0 2 2 0 1 2 2 2 2 2 1 -0 1 -0 0 -1 -7 -2 -4 -7 -4 -3 -5 -5 -7 -5 -9 -7 -2 -5 -6 -7 -8 -10 -12 -12 -12 -10 -11 -9 -9 -11 -11 -11
Wind_Speed
14 15 15 16 16 16 16 17 18 18 18 17 14 15 14 14 12 9 4 10 10 10 10 11 5 5 2 2 3 3 4 5 3 4 2 8 7 4 2 4 4 5 5 11 20
14 15 16 16 15 16 16 17 18 18 18 17 15 15 14 15 13 4 5 11 10 9 8 9 5 2 1 1 1 3 3 0 1 1 1 8 6 6 5 6 6 7 9 15 19
13 15 16 16 16 15 15 16 17 18 18 17 16 16 15 14 4 1 10 11 8 7 8 5 3 1 1 1 1 1 3 3 5 3 2 5 5 5 5 8 6 6 15 21 24
14 15 16 16 15 15 16 16 17 18 19 18 18 16 14 9 6 3 9 9 6 6 6 4 2 2 1 1 0 3 3 2 3 4 5 4 4 4 10 3 3 6 13 18 23
14 15 15 16 15 15 15 16 18 20 19 19 19 17 14 6 2 4 8 7 5 4 6 4 5 2 2 2 2 4 3 4 1 2 4 5 7 7 8 7 2 9 13 17 22
16 15 14 16 17 16 16 17 18 20 20 20 19 17 12 7 5 5 8 6 3 3 6 6 3 2 2 1 2 3 4 3 3 4 4 6 5 3 5 9 6 9 14 20 23
18 16 16 16 18 17 17 18 18 19 21 20 17 14 11 6 5 7 7 5 2 2 2 5 5 0 0 2 1 2 6 5 5 4 2 3 6 9 6 4 6 12 17 22 26
20 18 17 18 19 19 18 19 19 20 19 16 13 12 4 6 6 4 3 5 5 3 3 3 2 2 1 1 2 2 3 3 3 5 4 3 3 4 9 4 8 14 20 26 30
19 21 19 19 21 20 20 19 19 20 15 11 10 5 2 4 4 4 8 9 8 9 8 6 3 1 2 3 3 3 4 5 2 5 4 7 5 4 9 5 11 16 22 28 35
22 23 19 19 21 20 20 18 19 13 6 5 2 5 2 2 7 9 10 5 4 4 1 2 2 3 2 2 4 2 4 3 7 2 6 9 14 9 10 10 10 17 23 30 39
22 22 22 23 26 20 19 14 6 4 6 7 7 6 7 9 11 8 7 8 1 1 2 2 4 4 2 2 1 1 4 8 8 2 4 8 8 10 9 11 10 20 26 31 38
22 25 25 23 22 16 14 10 9 7 7 8 6 6 9 7 4 3 5 2 2 2 2 4 5 2 4 3 2 2 7 7 5 2 4 8 12 7 6 4 5 14 22 29 37
20 19 18 18 13 16 17 14 9 6 5 2 3 2 2 3 3 2 4 1 2 4 6 7 2 4 3 2 3 5 6 3 5 7 3 8 2 2 1 5 10 21 25 27 31
15 15 13 13 13 15 14 11 5 2 3 4 3 2 1 2 3 2 3 1 3 3 2 2 1 2 2 2 1 4 2 4 8 4 3 4 3 2 3 7 13 25 29 32 35
12 12 9 8 10 8 3 1 4 2 4 4 2 2 1 3 2 1 2 1 2 2 3 2 1 1 1 2 0 2 3 4 3 1 4 3 3 4 3 10 19 24 30 32 38
9 4 3 7 7 6 3 1 2 1 4 2 1 1 2 1 2 1 1 1 1 2 1 2 1 1 1 1 1 4 3 3 1 1 3 2 2 4 5 6 17 23 29 32 39
9 6 5 5 8 4 4 1 1 3 0 0 1 2 3 2 2 1 1 2 0 3 2 4 2 3 2 1 2 2 2 3 2 3 1 2 4 3 3 3 9 15 29 31 38
10 8 3 1 9 9 7 2 4 1 4 2 2 2 5 1 1 1 2 3 2 2 1 3 3 1 2 2 1 2 2 2 5 3 3 3 2 2 2 3 10 16 19 26 33
8 6 6 2 9 10 5 1 3 2 2 2 3 3 2 2 3 3 3 1 1 3 3 2 2 3 5 2 2 2 1 1 0 2 3 0 2 3 3 7 15 20 24 31 35
7 3 2 1 2 4 2 3 3 1 2 1 2 3 3 2 2 1 2 2 3 1 0 1 2 1 4 1 7 2 5 1 1 3 4 2 1 4 14 16 16 18 23 31 36
3 2 2 2 5 1 2 4 3 2 2 1 3 3 4 2 4 3 2 2 1 3 1 2 2 2 2 2 0 2 1 2 1 2 3 4 3 1 7 9 11 15 19 25 32
1 0 1 6 1 1 2 3 2 1 1 2 2 2 3 5 4 4 3 1 3 4 3 2 1 2 1 3 1 1 1 2 2 1 1 2 0 1 4 6 8 14 17 24 28
1 1 2 7 2 1 3 4 3 2 3 3 2 2 2 3 4 5 2 2 3 3 2 4 1 2 2 2 1 4 3 2 2 0 4 2 3 2 4 4 7 11 20 23 28
2 1 1 5 2 2 3 3 3 2 3 3 3 2 2 3 2 2 5 2 3 1 0 2 1 3 3 2 2 3 4 5 3 3 4 4 3 0 6 6 10 12 19 22 24
5 3 2 2 4 3 1 1 3 3 3 4 3 9 5 4 3 4 4 3 3 6 1 1 3 2 4 2 3 3 4 8 7 2 4 2 3 6 4 4 7 10 16 20 24
5 3 2 2 3 4 5 3 2 1 3 4 5 3 8 5 4 5 6 5 3 5 4 1 1 1 3 2 5 6 9 9 8 5 11 7 6 6 1 2 4 9 14 17 21
14 10 3 5 3 3 4 4 3 2 6 5 5 2 5 5 5 3 4 5 1 4 7 4 3 3 2 0 4 8 7 13 6 6 4 3 3 6 2 2 1 7 12 16 19
Wind_Direction
6 6 5 5 0 359 358 355 355 353 351 350 348 348 343 336 335 330 333 338 336 335 336 337 324 312 324 69 95 142 222 242 257 196 100 155 184 163 191 186 206 220 271 299 314
2 3 2 2 360 357 356 353 351 349 349 350 348 347 343 338 337 333 350 352 338 336 346 337 327 331 226 93 64 239 235 107 82 140 146 176 209 182 200 210 230 252 284 310 321
349 353 354 353 354 353 352 352 351 350 349 346 344 342 339 340 348 151 339 340 338 341 341 338 328 308 183 59 13 189 271 147 151 150 136 179 210 193 230 238 238 297 316 323 328
341 342 344 344 346 347 346 346 344 341 340 338 335 334 334 338 317 315 344 351 352 357 11 15 356 287 274 228 163 233 157 168 133 168 172 198 161 220 224 251 142 319 316 321 322
325 331 333 335 333 336 337 339 338 335 333 331 328 329 335 321 296 305 340 350 357 20 39 54 39 355 307 324 291 257 182 177 169 157 216 179 222 250 233 195 284 323 326 324 325
310 320 322 325 330 326 329 332 334 334 326 324 324 324 328 300 266 299 334 341 2 49 44 59 74 73 68 333 297 319 261 215 218 221 205 222 226 212 219 194 292 318 329 331 330
298 306 314 319 320 322 321 325 326 330 327 314 317 320 315 280 272 314 336 327 6 60 70 48 35 240 234 196 245 282 286 261 215 193 185 192 228 228 187 195 298 326 334 333 329
285 296 300 307 309 314 320 323 319 318 315 311 312 319 277 280 288 303 351 348 336 282 207 184 82 350 105 285 250 253 245 271 151 168 152 181 280 162 185 238 313 331 333 332 331
283 292 297 293 303 308 315 316 318 312 310 315 315 327 285 290 295 281 301 310 287 275 267 293 314 158 185 240 249 207 274 250 248 201 154 219 295 175 202 246 314 332 333 331 333
289 290 290 291 296 294 306 310 314 306 314 343 351 314 267 280 289 301 310 310 289 250 202 203 164 199 188 219 272 310 287 263 268 155 221 245 260 255 243 253 309 329 332 332 335
286 285 287 278 282 288 304 318 321 295 303 269 278 267 288 290 293 292 312 320 312 163 189 168 240 242 319 224 186 318 275 270 276 296 281 268 278 286 287 249 312 337 333 328 328
291 289 287 273 274 283 299 294 283 283 292 280 270 251 267 280 273 301 343 252 256 274 207 185 236 100 109 154 212 240 277 280 265 250 268 298 293 316 263 249 327 329 329 326 326
299 300 291 271 269 284 285 286 287 311 265 240 218 204 232 265 248 284 355 99 268 254 240 268 81 146 189 176 264 250 256 283 295 312 267 305 250 330 250 276 307 338 336 333 337
299 311 290 277 280 275 263 254 239 348 269 183 194 198 233 235 239 275 3 122 186 278 236 273 127 195 189 223 225 288 103 301 287 313 324 351 299 171 276 302 350 344 344 338 342
311 314 296 253 262 230 270 359 338 305 266 98 143 219 232 254 341 157 319 196 243 219 235 103 194 152 239 58 230 316 311 292 293 311 312 151 249 115 337 335 345 340 339 343 341
333 358 30 262 227 82 40 8 213 124 250 79 80 324 272 213 249 292 279 348 99 239 218 90 105 51 70 44 246 320 257 237 112 201 237 144 304 141 350 326 326 330 343 346 336
343 359 332 258 185 108 122 315 213 239 75 247 238 209 259 247 233 259 28 298 219 242 189 177 139 106 47 284 176 288 293 296 242 204 343 176 260 21 311 295 328 323 334 341 342
13 15 358 195 158 133 129 31 214 156 208 146 180 220 263 182 208 245 249 249 163 268 232 248 198 23 43 44 331 26 317 281 288 315 353 188 241 100 307 316 339 331 332 347 350
19 18 26 146 158 146 140 181 221 217 59 198 209 242 209 236 268 272 226 263 78 221 256 229 152 123 65 77 306 104 261 26 271 194 260 74 166 221 279 360 353 349 349 355 352
21 353 326 91 300 152 83 253 264 233 175 103 249 244 255 203 259 260 220 120 158 254 263 199 238 138 129 184 60 12 128 244 171 302 291 124 266 6 343 343 349 345 351 351 354
339 3 304 166 192 98 241 244 285 30 23 262 266 231 237 238 242 196 265 134 163 163 216 190 268 115 185 196 137 170 168 69 86 320 308 314 110 56 316 331 326 330 347 352 353
280 126 265 148 177 265 242 255 321 302 41 246 277 256 221 196 219 229 239 84 160 171 188 185 224 239 61 102 31 286 248 249 257 145 50 322 325 10 327 326 311 327 347 358 2
225 239 251 180 208 214 262 275 276 233 216 172 265 259 353 234 254 204 183 94 146 202 205 189 207 251 176 158 197 240 167 131 116 183 206 272 57 207 327 17 354 338 354 3 5
200 278 98 201 180 229 253 249 265 262 278 220 254 140 207 235 247 257 198 147 167 221 137 219 194 256 311 65 104 198 194 197 234 232 148 239 327 169 352 15 350 358 1 6 7
200 234 203 194 234 200 179 262 222 275 225 235 212 226 200 225 208 229 171 168 195 183 82 286 249 203 278 232 207 257 195 188 204 216 239 82 259 326 354 18 323 349 3 7 10
182 188 202 229 185 164 197 221 263 235 203 237 242 316 202 239 214 209 165 189 196 164 174 216 215 175 272 204 239 264 233 210 218 241 258 258 279 206 67 44 333 359 15 10 8
211 216 189 192 163 189 195 227 198 152 237 251 251 223 230 235 137 101 124 85 137 177 179 179 179 184 254 160 293 269 220 188 185 211 169 181 99 166 140 88 49 4 18 13 11
Height
1535 1532 1530 1528 1527 1524 1522 1519 1516 1513 1511 1508 1506 1503 1501 1499 1497 1497 1496 1496 1494 1492 1492 1492 1489 1487 1486 1486 1485 1485 1480 1474 1477 1482 1482 1490 1490 1493 1494 1495 1495 1495 1494 1494 1490
1534 1532 1530 1527 1525 1523 1520 1518 1515 1513 1510 1507 1506 1503 1500 1498 1495 1495 1495 1492 1491 1490 1490 1491 1491 1489 1488 1486 1486 1483 1477 1474 1483 1486 1486 1490 1490 1492 1494 1493 1492 1493 1493 1492 1488
1533 1531 1530 1527 1524 1522 1520 1517 1515 1512 1509 1507 1504 1502 1500 1497 1495 1493 1493 1491 1489 1488 1487 1486 1487 1488 1488 1487 1486 1485 1478 1481 1482 1486 1489 1490 1491 1493 1491 1490 1490 1492 1490 1486 1482
1531 1530 1528 1526 1524 1521 1519 1516 1513 1511 1508 1506 1504 1500 1498 1497 1495 1492 1492 1490 1488 1488 1487 1487 1487 1487 1486 1484 1486 1483 1483 1484 1483 1484 1488 1489 1490 1490 1490 1489 1489 1489 1488 1485 1481
1529 1528 1526 1525 1523 1520 1518 1515 1512 1510 1507 1504 1501 1499 1498 1497 1496 1493 1492 1490 1489 1488 1487 1485 1487 1487 1485 1486 1486 1484 1483 1482 1484 1484 1485 1487 1487 1488 1487 1487 1487 1486 1485 1483 1477
1527 1525 1524 1522 1521 1519 1516 1514 1511 1508 1505 1502 1499 1498 1497 1497 1493 1492 1492 1490 1489 1488 1487 1486 1486 1487 1487 1487 1487 1486 1485 1481 1481 1483 1484 1485 1486 1487 1484 1486 1486 1485 1482 1478 1473
1524 1523 1521 1519 1518 1516 1514 1512 1509 1506 1503 1500 1497 1495 1494 1495 1491 1491 1491 1490 1488 1487 1488 1487 1486 1486 1486 1485 1486 1485 1482 1481 1480 1481 1482 1486 1484 1482 1484 1485 1484 1481 1478 1474 1469
1519 1519 1517 1516 1515 1513 1511 1510 1506 1503 1499 1496 1494 1493 1493 1491 1490 1490 1490 1489 1487 1485 1485 1484 1484 1485 1484 1486 1484 1481 1483 1475 1480 1480 1483 1485 1467 1479 1483 1483 1480 1478 1474 1470 1463
1514 1513 1512 1511 1511 1509 1508 1506 1502 1499 1496 1495 1493 1493 1492 1491 1490 1489 1488 1487 1486 1484 1483 1483 1482 1484 1484 1481 1477 1479 1467 1474 1474 1481 1481 1482 1470 1479 1482 1480 1478 1475 1472 1466 1457
1511 1509 1508 1507 1507 1505 1504 1502 1499 1496 1494 1493 1492 1495 1493 1493 1490 1488 1486 1484 1484 1483 1484 1483 1482 1481 1481 1478 1468 1470 1471 1475 1474 1481 1481 1476 1472 1475 1479 1478 1476 1472 1469 1461 1451
1506 1505 1504 1503 1502 1502 1503 1500 1500 1497 1494 1493 1489 1490 1490 1489 1488 1486 1484 1483 1483 1483 1482 1482 1479 1473 1474 1478 1481 1481 1481 1477 1474 1480 1481 1472 1472 1473 1475 1475 1473 1471 1465 1457 1450
1501 1499 1498 1498 1498 1498 1499 1499 1498 1498 1491 1488 1487 1487 1487 1487 1487 1485 1483 1484 1482 1477 1480 1478 1473 1478 1480 1482 1483 1481 1480 1473 1475 1481 1481 1471 1469 1473 1472 1472 1473 1470 1463 1457 1445
1497 1494 1493 1491 1493 1495 1496 1497 1495 1494 1493 1487 1485 1484 1485 1487 1485 1484 1483 1480 1480 1478 1477 1473 1478 1480 1479 1481 1482 1477 1478 1476 1478 1477 1476 1473 1465 1475 1472 1471 1471 1466 1462 1456 1446
1492 1491 1489 1491 1493 1491 1491 1491 1492 1492 1490 1482 1485 1484 1485 1484 1485 1482 1481 1482 1479 1477 1478 1477 1482 1479 1478 1478 1482 1477 1482 1483 1480 1476 1464 1475 1450 1467 1469 1468 1463 1462 1457 1450 1442
1488 1488 1487 1488 1488 1488 1492 1490 1490 1491 1483 1485 1484 1484 1483 1486 1484 1483 1482 1481 1477 1477 1480 1475 1478 1477 1476 1480 1483 1478 1484 1481 1478 1475 1477 1474 1472 1457 1466 1466 1462 1461 1456 1450 1440
1487 1486 1487 1486 1487 1489 1489 1488 1491 1493 1477 1483 1486 1485 1484 1483 1484 1482 1483 1482 1479 1480 1478 1478 1481 1479 1479 1482 1483 1484 1482 1479 1478 1476 1469 1484 1473 1449 1465 1473 1468 1462 1456 1450 1438
1486 1486 1486 1485 1487 1487 1489 1489 1492 1482 1486 1483 1480 1484 1484 1479 1481 1480 1483 1482 1477 1477 1475 1477 1478 1481 1481 1480 1484 1481 1477 1458 1454 1462 1443 1482 1468 1460 1469 1473 1474 1465 1457 1452 1438
1487 1486 1486 1486 1487 1487 1490 1494 1483 1479 1476 1484 1482 1482 1481 1479 1480 1478 1478 1474 1482 1483 1475 1464 1463 1479 1482 1483 1483 1483 1481 1465 1449 1437 1444 1477 1456 1456 1469 1473 1472 1466 1462 1453 1439
1488 1488 1487 1488 1488 1488 1490 1491 1480 1477 1482 1482 1481 1478 1474 1480 1482 1478 1474 1475 1479 1484 1475 1472 1468 1484 1484 1486 1487 1483 1479 1491 1487 1497 1467 1452 1458 1464 1468 1467 1468 1464 1458 1449 1439
1489 1486 1490 1488 1490 1492 1489 1487 1479 1481 1482 1481 1479 1476 1474 1475 1480 1477 1473 1480 1481 1484 1485 1480 1471 1481 1484 1487 1488 1485 1491 1479 1480 1453 1432 1445 1458 1451 1464 1467 1467 1464 1459 1451 1443
1488 1486 1489 1490 1491 1492 1489 1483 1481 1484 1484 1484 1476 1475 1477 1478 1479 1476 1473 1481 1481 1485 1484 1484 1480 1481 1483 1482 1480 1485 1486 1492 1489 1490 1452 1437 1446 1474 1475 1475 1474 1468 1464 1456 1446
1487 1487 1489 1490 1492 1491 1488 1484 1485 1484 1484 1483 1482 1479 1477 1480 1478 1479 1473 1477 1482 1484 1482 1483 1478 1470 1475 1488 1489 1488 1485 1483 1467 1477 1500 1483 1451 1476 1477 1477 1475 1469 1465 1458 1450
1486 1488 1488 1489 1487 1490 1490 1488 1486 1484 1483 1483 1481 1480 1481 1478 1475 1475 1476 1483 1483 1483 1483 1483 1478 1464 1473 1487 1489 1484 1487 1493 1495 1492 1482 1460 1445 1475 1476 1475 1473 1470 1464 1459 1451
1487 1488 1488 1488 1488 1490 1488 1484 1483 1483 1482 1481 1480 1481 1481 1480 1481 1476 1478 1483 1484 1485 1484 1483 1481 1473 1453 1465 1479 1482 1487 1489 1485 1470 1478 1465 1461 1472 1470 1474 1472 1471 1466 1460 1455
1485 1484 1484 1485 1487 1486 1487 1485 1482 1480 1482 1481 1478 1478 1477 1476 1480 1477 1480 1484 1484 1484 1485 1484 1477 1481 1473 1476 1480 1477 1481 1489 1489 1477 1467 1477 1478 1470 1473 1476 1474 1472 1468 1462 1457
1481 1483 1484 1484 1484 1484 1484 1482 1480 1478 1480 1477 1477 1473 1475 1472 1471 1472 1477 1480 1475 1484 1484 1486 1475 1480 1472 1478 1479 1475 1473 1478 1485 1481 1479 1480 1477 1474 1476 1477 1474 1472 1470 1465 1461
1476 1479 1481 1481 1482 1482 1479 1479 1478 1479 1475 1475 1474 1474 1474 1472 1474 1476 1477 1478 1478 1479 1482 1483 1480 1478 1457 1478 1480 1459 1465 1470 1472 1474 1469 1463 1465 1473 1475 1476 1476 1472 1470 1467 1463